Location: Bois de la Silve
(44.4667°N, 6.7833°E)
Time: 10:50:20
(UTC+00:00)

Okean 2 - Pass Details

Date: 14 July 2020
Orbit: 559 x 578 km, 82.5° (Epoch: 06 August)

Event Time Altitude Azimuth Distance (km) Brightness Sun altitude
Rises 02:32:36 0° 357° (N) 2,762 7.6 -12.9°
Reaches altitude 10° 02:34:52 10° 4° (N) 1,860 6.8 -12.7°
Maximum altitude 02:38:48 45° 77° (ENE) 768 4.5 -12.2°
Drops below altitude 10° 02:42:43 10° 152° (SSE) 1,842 5.8 -11.7°
Sets 02:44:56 0° 158° (SSE) 2,732 6.6 -11.4°
